TimeCST,TemperatureF,Dew PointF,Humidity,Sea Level PressureIn,VisibilityMPH,Wind Direction,Wind SpeedMPH,Gust SpeedMPH,PrecipitationIn,Events,Conditions,WindDirDegrees,DateUTC
12:53 AM,41.0,39.0,93,30.17,3.0,West,3.5,-,N/A,,Clear,280,2012-11-21 06:53:00
1:53 AM,41.0,39.0,93,30.19,3.0,West,3.5,-,N/A,,Clear,270,2012-11-21 07:53:00
2:08 AM,39.2,39.2,100,30.20,2.5,WSW,3.5,-,N/A,,Clear,250,2012-11-21 08:08:00
2:16 AM,41.0,39.2,93,30.20,3.0,West,4.6,-,N/A,,Clear,270,2012-11-21 08:16:00
2:32 AM,39.2,39.2,100,30.20,2.5,West,4.6,-,N/A,,Clear,260,2012-11-21 08:32:00
2:53 AM,39.9,37.9,93,30.20,2.5,Calm,Calm,-,N/A,,Clear,0,2012-11-21 08:53:00
3:19 AM,42.8,41.0,93,30.20,3.0,Calm,Calm,-,N/A,,Clear,0,2012-11-21 09:19:00
3:28 AM,41.0,39.2,93,30.20,2.5,WSW,3.5,-,N/A,,Clear,240,2012-11-21 09:28:00
3:53 AM,39.9,39.0,97,30.20,1.8,WSW,3.5,-,N/A,,Clear,250,2012-11-21 09:53:00
4:20 AM,37.4,37.4,100,30.22,0.5,West,3.5,-,N/A,Fog,Fog,270,2012-11-21 10:20:00
4:53 AM,39.9,39.9,100,30.23,1.2,West,4.6,-,N/A,,Clear,280,2012-11-21 10:53:00
5:16 AM,39.2,37.4,93,30.23,0.5,WNW,3.5,-,N/A,Fog,Fog,290,2012-11-21 11:16:00
5:23 AM,39.2,37.4,93,30.24,0.2,Calm,Calm,-,N/A,Fog,Fog,0,2012-11-21 11:23:00
6:18 AM,39.2,37.4,93,30.24,0.2,Calm,Calm,-,N/A,Fog,Fog,0,2012-11-21 12:18:00
6:51 AM,35.6,35.6,100,30.26,0.2,Calm,Calm,-,N/A,Fog,Fog,0,2012-11-21 12:51:00
6:53 AM,36.0,36.0,100,30.26,0.2,Calm,Calm,-,N/A,Fog,Fog,0,2012-11-21 12:53:00
7:53 AM,41.0,39.9,96,30.27,0.2,ESE,3.5,-,N/A,Fog,Fog,110,2012-11-21 13:53:00
8:53 AM,44.1,44.1,100,30.28,0.2,Calm,Calm,-,N/A,Fog,Fog,0,2012-11-21 14:53:00
9:35 AM,48.2,48.2,100,30.29,1.0,Calm,Calm,-,N/A,,Mist,0,2012-11-21 15:35:00
9:40 AM,48.2,48.2,100,30.29,2.0,Calm,Calm,-,N/A,,Scattered Clouds,0,2012-11-21 15:40:00
9:53 AM,50.0,48.2,94,30.29,2.5,Calm,Calm,-,N/A,,Partly Cloudy,0,2012-11-21 15:53:00
10:03 AM,51.8,48.2,88,30.29,3.0,Calm,Calm,-,N/A,,Clear,0,2012-11-21 16:03:00
10:53 AM,57.9,48.0,70,30.28,5.0,Variable,3.5,-,N/A,,Haze,0,2012-11-21 16:53:00
11:53 AM,60.1,46.0,60,30.26,8.0,Calm,Calm,-,N/A,,Clear,0,2012-11-21 17:53:00
1:53 PM,64.9,46.9,52,30.22,8.0,Variable,3.5,-,N/A,,Clear,0,2012-11-21 19:53:00
2:53 PM,64.0,46.9,54,30.21,8.0,WSW,3.5,-,N/A,,Clear,240,2012-11-21 20:53:00
3:53 PM,63.0,46.9,56,30.20,10.0,Calm,Calm,-,N/A,,Clear,0,2012-11-21 21:53:00
4:53 PM,57.9,46.0,65,30.21,8.0,Calm,Calm,-,N/A,,Clear,0,2012-11-21 22:53:00
5:53 PM,50.0,44.1,80,30.21,9.0,Calm,Calm,-,N/A,,Clear,0,2012-11-21 23:53:00
6:53 PM,48.0,44.1,86,30.21,7.0,SSE,3.5,-,N/A,,Clear,160,2012-11-22 00:53:00
7:53 PM,45.0,42.1,90,30.20,6.0,ESE,4.6,-,N/A,,Clear,120,2012-11-22 01:53:00
8:53 PM,45.0,41.0,86,30.20,6.0,Calm,Calm,-,N/A,,Clear,0,2012-11-22 02:53:00
9:53 PM,39.9,39.0,97,30.21,4.0,Calm,Calm,-,N/A,,Clear,0,2012-11-22 03:53:00
10:53 PM,39.0,37.9,96,30.20,5.0,Calm,Calm,-,N/A,,Clear,0,2012-11-22 04:53:00
11:53 PM,41.0,39.0,93,30.20,4.0,Calm,Calm,-,N/A,,Clear,0,2012-11-22 05:53:00